This is the latest recevied weather packets stored in our database for station/object E25XKG-15. If no packets are shown the sender has not sent any weather packets the latest 10 day(s).
| Time | Temp. | Humidity | Pressure | Rain* | Wind** | Luminosity | Snow |
|---|---|---|---|---|---|---|---|
| 1777588498 | 32.78° C | 50% | 1004.9 hPa | - | - | - | - |
| 1777588197 | 32.78° C | 51% | 1004.9 hPa | - | - | - | - |
| 1777587896 | 32.78° C | 53% | 1005 hPa | - | - | - | - |
| 1777587595 | 32.78° C | 53% | 1005 hPa | - | - | - | - |
| 1777587294 | 32.78° C | 48% | 1004.9 hPa | - | - | - | - |
| 1777586993 | 32.78° C | 49% | 1004.9 hPa | - | - | - | - |
| 1777586692 | 32.78° C | 52% | 1005 hPa | - | - | - | - |
| 1777586391 | 32.78° C | 49% | 1004.6 hPa | - | - | - | - |
| 1777586090 | 32.78° C | 49% | 1004.8 hPa | - | - | - | - |
| 1777585789 | 32.78° C | 48% | 1004.8 hPa | - | - | - | - |
| 1777585488 | 32.78° C | 48% | 1004.4 hPa | - | - | - | - |
| 1777585188 | 32.78° C | 50% | 1004.4 hPa | - | - | - | - |
| 1777584887 | 32.78° C | 47% | 1004.1 hPa | - | - | - | - |
| 1777584586 | 32.78° C | 49% | 1004 hPa | - | - | - | - |
| 1777584285 | 32.78° C | 52% | 1003.9 hPa | - | - | - | - |
| 1777583984 | 32.78° C | 52% | 1003.9 hPa | - | - | - | - |
| 1777583683 | 32.78° C | 51% | 1003.9 hPa | - | - | - | - |
| 1777583382 | 32.78° C | 49% | 1003.8 hPa | - | - | - | - |
| 1777583081 | 32.78° C | 51% | 1003.9 hPa | - | - | - | - |
| 1777582780 | 32.78° C | 49% | 1003.8 hPa | - | - | - | - |
| 1777582479 | 32.78° C | 50% | 1003.8 hPa | - | - | - | - |
| 1777582178 | 32.78° C | 49% | 1003.7 hPa | - | - | - | - |
| 1777581877 | 32.78° C | 50% | 1003.5 hPa | - | - | - | - |
| 1777581576 | 32.78° C | 51% | 1003.7 hPa | - | - | - | - |
| 1777581275 | 32.78° C | 51% | 1003.8 hPa | - | - | - | - |
* Rain since midnight (hover to see other rain measurements)
** Current wind speed in m/s (hover to see current wind gust speed)